P/2001 F1 ( NEAT )

Japanese version
Home page
Updated on May 10, 2003

---------------------------------------------------------------------

* Profile

Discovery Date March 24, 2001
Magnitude 19.7 mag
Discoverer Near-Earth-Asteroid Tracking Team (Jet Propulsion Laboratory)

* Orbital Elements

Epoch 2000 Dec. 2.0 TT = JDT 2451880.5
T 2000 Nov. 21.8341 TT                                  Nakano
q   4.152567             (2000.0)            P               Q
n   0.0602341      Peri.   80.6985      -0.9394568      -0.1036894
a   6.445270       Node    92.8383      -0.0226236      -0.9322712
e   0.355719       Incl.   19.0870      +0.3419196      -0.3465818
P  16.4
From 123 observations 2001 Mar. 24-July 23, mean residual 0".7.

* Finding Charts

* Magnitudes Graph

        m1 = 9.5 + 5 log d + 10.0 log r

---------------------------------------------------------------------

The orbital elements are calculated by Syuichi Nakano and published at the MPC Ephemerides and Orbital Elements.
The charts are made with StellaNavigator Ver.2.0 for Windows (AstroArts / ASCII).
The magnitudes graphs are made with Comet for Windows.

---------------------------------------------------------------------

Copyright(C) Seiichi Yoshida (comet@aerith.net). All rights reserved.